| time (UTC) | temp F | wind direction | speed MPH | gust MPH | rain 1hr in | rain 24hr in | rain mn in | humidity % | barometer mb |
| 20260505003011 | 54 | 122 | 5.0 | 9.0 | 0.00 | 0.00 | 0.00 | 26 | 995.6 |
| 20260505001511 | 55 | 130 | 1.0 | 7.0 | 0.00 | 0.00 | 0.00 | 28 | 995.3 |
| 20260505000012 | 56 | 151 | 3.0 | 8.0 | 0.00 | 0.00 | 0.00 | 26 | 994.9 |
| 20260504234509 | 58 | 144 | 2.0 | 8.0 | 0.00 | 0.00 | 0.00 | 25 | 994.7 |
| 20260504233011 | 59 | 133 | 2.0 | 10.0 | 0.00 | 0.00 | 0.00 | 22 | 994.4 |
| 20260504231509 | 59 | 178 | 2.0 | 9.0 | 0.00 | 0.00 | 0.00 | 23 | 994.2 |
| 20260504230009 | 60 | 104 | 3.0 | 9.0 | 0.00 | 0.00 | 0.00 | 23 | 993.9 |
| 20260504224516 | 60 | 232 | 2.0 | 11.0 | 0.00 | 0.00 | 0.00 | 24 | 993.9 |
| 20260504223010 | 61 | 137 | 2.0 | 5.0 | 0.00 | 0.00 | 0.00 | 24 | 993.9 |
| 20260504221508 | 62 | 121 | 1.0 | 6.0 | 0.00 | 0.00 | 0.00 | 23 | 993.7 |
| 20260504220007 | 62 | 123 | 3.0 | 8.0 | 0.00 | 0.00 | 0.00 | 22 | 993.6 |
| 20260504214506 | 62 | 62 | 4.0 | 9.0 | 0.00 | 0.00 | 0.00 | 22 | 993.2 |
| 20260504213015 | 62 | 126 | 2.0 | 9.0 | 0.00 | 0.00 | 0.00 | 22 | 993.4 |
| 20260504211515 | 62 | 289 | 3.0 | 6.0 | 0.00 | 0.00 | 0.00 | 22 | 993.1 |
| 20260504210005 | 63 | 132 | 1.0 | 8.0 | 0.00 | 0.00 | 0.00 | 19 | 992.9 |
| 20260504204505 | 64 | 48 | 2.0 | 6.0 | 0.00 | 0.00 | 0.00 | 17 | 992.6 |
| 20260504203005 | 65 | 77 | 2.0 | 8.0 | 0.00 | 0.00 | 0.00 | 16 | 992.2 |
| 20260504201503 | 65 | 107 | 2.0 | 6.0 | 0.00 | 0.00 | 0.00 | 17 | 992.2 |
| 20260504200006 | 65 | 132 | 2.0 | 10.0 | 0.00 | 0.00 | 0.00 | 17 | 992.1 |
| 20260504194504 | 66 | 161 | 3.0 | 12.0 | 0.00 | 0.00 | 0.00 | 13 | 991.8 |
| 20260504193002 | 67 | 47 | 3.0 | 11.0 | 0.00 | 0.00 | 0.00 | 13 | 991.8 |
| 20260504191502 | 67 | 117 | 1.0 | 11.0 | 0.00 | 0.00 | 0.00 | 14 | 991.6 |
| 20260504190110 | 67 | 61 | 2.0 | 12.0 | 0.00 | 0.00 | 0.00 | 11 | 991.6 |
| 20260504184558 | 67 | 94 | 4.0 | 16.0 | 0.00 | 0.00 | 0.00 | 18 | 991.6 |
| 20260504183056 | 67 | 113 | 4.0 | 9.0 | 0.00 | 0.00 | 0.00 | 19 | 991.5 |
| 20260504181601 | 67 | 156 | 4.0 | 12.0 | 0.00 | 0.00 | 0.00 | 22 | 991.4 |
| 20260504180055 | 66 | 94 | 5.0 | 12.0 | 0.00 | 0.00 | 0.00 | 20 | 991.3 |
| 20260504174554 | 67 | 111 | 4.0 | 10.0 | 0.00 | 0.00 | 0.00 | 22 | 991.2 |
| 20260504173057 | 66 | 73 | 5.0 | 13.0 | 0.00 | 0.00 | 0.00 | 22 | 991.2 |
| 20260504171553 | 67 | 80 | 4.0 | 11.0 | 0.00 | 0.00 | 0.00 | 23 | 991.2 |
| 20260504081506 | 43 | 147 | 0.0 | 0.0 | 0.00 | 0.00 | 0.00 | 46 | 998.0 |
| 20260504050141 | 44 | 202 | 0.0 | 0.0 | 0.00 | 0.00 | 0.00 | 46 | 1001.1 |
| 20260504044541 | 44 | 202 | 0.0 | 0.0 | 0.00 | 0.00 | 0.00 | 45 | 1001.2 |
| 20260504043044 | 45 | 202 | 0.0 | 0.0 | 0.00 | 0.00 | 0.00 | 45 | 1001.1 |
| 20260504041541 | 46 | 202 | 0.0 | 0.0 | 0.00 | 0.00 | 0.00 | 43 | 1001.1 |
| 20260504040142 | 47 | 202 | 0.0 | 0.0 | 0.00 | 0.00 | 0.00 | 40 | 1001.3 |
| 20260504034639 | 47 | 202 | 0.0 | 0.0 | 0.00 | 0.00 | 0.00 | 41 | 1001.5 |
| 20260504033038 | 48 | 202 | 0.0 | 0.0 | 0.00 | 0.00 | 0.00 | 37 | 1001.6 |
| 20260504031551 | 49 | 202 | 0.0 | 0.0 | 0.00 | 0.00 | 0.00 | 34 | 1001.7 |
| 20260504024539 | 52 | 202 | 0.0 | 0.0 | 0.00 | 0.00 | 0.00 | 28 | 1001.9 |
| 20260504023039 | 53 | 202 | 0.0 | 0.0 | 0.00 | 0.00 | 0.00 | 28 | 1001.8 |
| 20260504021538 | 54 | 202 | 0.0 | 0.0 | 0.00 | 0.00 | 0.00 | 28 | 1001.8 |
| 20260504020138 | 56 | 202 | 0.0 | 0.0 | 0.00 | 0.00 | 0.00 | 27 | 1001.8 |
| 20260504014541 | 57 | 202 | 0.0 | 0.0 | 0.00 | 0.00 | 0.00 | 26 | 1001.7 |
| 20260504013041 | 59 | 202 | 0.0 | 2.0 | 0.00 | 0.00 | 0.00 | 25 | 1001.5 |
| 20260504011540 | 60 | 141 | 0.0 | 3.0 | 0.00 | 0.00 | 0.00 | 20 | 1001.5 |
| 20260504004535 | 61 | 138 | 2.0 | 5.0 | 0.00 | 0.00 | 0.00 | 17 | 1001.2 |